[[{"header":{"parameterUnit":"m.s-1","parameterCategory":1,"la1":30.2991,"la2":30.254,"lo1":-89.0895,"lo2":-89.0444,"dy":0.0017,"dx":0.0017,"nx":28,"ny":28,"refTime":"2026-01-31T09:00:00:Z","depth":0,"parameterNumber":2,"parameterNumberName":"U-component_of_WINDS"},"data":[0,0,0,0,0,0,0,0,0,0,0,0,0,0,0,0,0,0,0,0,0,0,0,0,0,0,0,0,0,0,0,0,0,0,0,0,0,0,0,0,0,0,0,0,0,0,0,0,0,0,0,0,0,0,0,0,0,0,2.0606,2.0607,0,2.0643,2.0643,2.0644,2.064,2.064,2.0639,2.0639,2.0675,2.0676,2.0677,0,0,0,0,0,0,0,0,0,0,0,0,0,2.0533,2.0535,2.0606,2.0607,2.0607,2.0643,2.0643,2.0644,2.064,2.064,2.0639,2.0638,2.0674,2.0676,2.0678,0,0,0,0,0,0,0,0,0,0,0,0,0,2.0567,2.0535,2.0606,2.061,2.0611,2.0643,2.0643,2.0644,2.0641,2.064,2.0639,2.0638,2.0673,2.0676,2.0678,2.0708,0,0,2.0685,2.0686,0,0,0,0,0,0,0,0,2.0565,2.057,2.0609,2.061,2.0611,2.0636,2.0631,2.0666,2.0641,2.0629,2.0639,2.0638,2.0662,2.0665,2.0674,2.071,2.0712,2.0685,2.0686,2.0687,2.0688,0,0,0,0,0,0,0,2.0563,2.0568,2.0621,2.0609,2.061,2.061,2.0614,2.0637,2.065,2.063,2.063,2.0634,2.0663,2.0672,2.0675,2.0712,2.0685,2.0687,2.0688,2.0689,2.0776,2.0777,0,0,0,0,0,0,2.056,2.0566,2.062,2.0622,2.0585,2.0612,2.0616,2.0629,2.065,2.0652,2.0635,2.0634,2.0669,2.0672,2.0676,2.0714,2.0687,2.0689,2.069,2.0775,2.0777,2.0778,0,0,0,0,0,0,2.0558,2.0565,2.0618,2.0594,2.0601,2.0614,2.0628,2.063,2.0639,2.0654,2.0656,2.0642,2.0668,2.0673,2.0701,2.0715,2.069,2.0692,2.0774,2.0776,2.0777,2.0789,0,0,0,0,0,0,2.0556,2.0564,2.0576,2.0594,2.0602,2.0642,2.0629,2.0631,2.0643,2.0642,2.0661,2.0663,2.0668,2.0698,2.0703,2.0717,2.0694,2.0773,2.0775,2.0777,2.0787,2.079,2.0793,0,0,0,0,0,2.0554,2.0577,2.0576,2.0583,2.0617,2.0643,2.0647,2.0653,2.0644,2.0656,2.0666,2.0662,2.0713,2.07,2.0707,2.0722,2.0772,2.0774,2.0777,2.0786,2.079,2.0793,0,0,0,0,0,0,2.0558,2.0579,2.0579,2.0609,2.0624,2.0642,2.0657,2.0657,2.0674,2.0673,2.0678,2.0683,2.0711,2.0719,2.0705,2.0753,2.0741,2.0745,2.0746,2.075,2.0753,2.075,2.0696,0,0,0,0,0,2.0563,2.0582,2.06,2.0625,2.0633,2.0644,2.0655,2.0658,2.0674,2.0681,2.0692,2.0707,2.0727,2.0739,2.0758,2.0789,2.0793,2.0803,2.0806,2.0809,2.0811,2.0829,2.0834,2.0785,2.0785,2.0785,0,0,2.0572,2.0586,2.0598,2.0626,2.0638,2.0658,2.0649,2.067,2.0685,2.0684,2.071,2.072,2.0738,2.0767,2.0781,2.0775,2.0826,2.0811,2.0813,2.0814,2.0832,2.0836,2.0841,2.0787,2.0786,2.0786,0,0,2.0599,2.0612,2.0635,2.0648,2.0667,2.0675,2.068,2.0699,2.0705,2.0733,2.0732,2.0751,2.0784,2.0797,2.0807,2.0843,2.084,2.0849,2.0864,2.0882,2.0885,2.0889,2.0901,2.0906,2.0852,2.0852,2.0852,0,2.0608,2.0639,2.0646,2.0668,2.0681,2.0682,2.0704,2.0717,2.0741,2.075,2.0743,2.0786,2.0798,2.0831,2.084,2.0849,2.0856,2.0846,2.0884,2.0888,2.0891,2.0903,2.0908,2.0852,2.0852,2.0852,2.0852,0,2.0649,2.067,2.0686,2.0711,2.0725,2.0747,2.0758,2.0772,2.0775,2.0784,2.0812,2.0827,2.0849,2.0858,2.086,2.0892,2.0888,2.0883,2.0871,2.0897,2.0908,2.0912,2.0854,2.0853,2.0853,2.0853,0,0,2.0677,2.0707,2.0713,2.0725,2.0747,2.0764,2.0787,2.081,2.0821,2.0839,2.0858,2.0888,2.0884,2.0897,2.0901,2.0916,2.0944,2.091,2.091,2.0915,2.098,2.0983,2.0988,2.0943,2.0944,2.0945,2.0978,0,2.0706,2.0747,2.0756,2.0791,2.0811,2.0814,2.0834,2.085,2.086,2.0878,2.0888,2.0909,2.0903,2.091,2.0926,2.0937,2.0957,2.0935,2.0961,2.0962,2.0955,2.0994,2.0996,2.1027,2.0983,2.0984,2.0984,0,2.0745,2.0765,2.0802,2.0824,2.0832,2.085,2.0872,2.089,2.0909,2.0915,2.0931,2.0934,2.0958,2.0947,2.098,2.0966,2.0977,2.0985,2.0986,2.0987,2.0973,2.0995,2.1037,2.1041,2.0991,2.0991,2.099,0,2.0762,2.0797,2.0825,2.0835,2.086,2.0873,2.0885,2.0903,2.0916,2.0936,2.0945,2.0967,2.0979,2.0996,2.1005,2.0996,2.1039,2.1028,2.1044,2.1044,2.1051,2.1051,2.1094,2.1061,2.1061,2.1061,2.1061,0,2.0792,2.0815,2.0833,2.0849,2.0876,2.0886,2.0911,2.0922,2.0939,2.0958,2.0962,2.098,2.0992,2.1012,2.1019,2.1047,2.1052,2.1057,2.1059,2.1056,2.1055,2.1063,2.106,2.1062,2.1062,2.1062,2.1061,0,2.0814,2.0827,2.0857,2.088,2.0886,2.0904,2.0924,2.094,2.0951,2.0975,2.0982,2.0998,2.1021,2.1033,2.1062,2.1067,2.1098,2.1099,2.1092,2.1092,2.1107,2.1106,2.1156,2.1164,2.1126,2.1127,2.1127,0,2.0832,2.085,2.0875,2.0889,2.0901,2.0922,2.0937,2.0948,2.0963,2.0987,2.1001,2.1025,2.1045,2.1083,2.1097,2.112,2.112,2.1137,2.1124,2.1121,2.112,2.1118,2.112,2.1139,2.1139,2.1139,2.114,0,2.0863,2.0869,2.0889,2.0913,2.093,2.0949,2.0968,2.0979,2.0993,2.101,2.1035,2.105,2.1081,2.1105,2.1129,2.1141,2.1143,2.1144,2.1149,2.1146,2.1141,2.1143,2.1097,2.1142,2.1142,2.1142,2.1142,2.1141,2.0883,2.0899,2.092,2.0943,2.0959,2.0977,2.0994,2.1007,2.1028,2.1054,2.106,2.1087,2.1107,2.114,2.1153,2.1174,2.117,2.1177,2.1179,2.118,2.1181,2.1139,2.1178,2.1178,2.1178,2.1178,2.1178,0,2.0913,2.0927,2.0949,2.0975,2.0994,2.0996,2.1017,2.1032,2.1056,2.1075,2.1095,2.1124,2.1148,2.1165,2.119,2.1203,2.1205,2.1209,2.1208,2.1211,2.1183,2.1176,2.1208,2.1208,2.1208,2.1208,2.1208,2.1208,2.0931,2.0959,2.0968,2.1004,2.1018,2.1044,2.1056,2.1073,2.1089,2.1121,2.1141,2.1153,2.1172,2.1198,2.122,2.1225,2.1233,2.1238,2.1242,2.1216,2.1212,2.1209,2.1203,2.124,2.124,2.1268,2.1268,2.1269]},{"header":{"parameterUnit":"m.s-1","parameterCategory":1,"la1":30.2991,"la2":30.254,"lo1":-89.0895,"lo2":-89.0444,"dy":0.0017,"dx":0.0017,"nx":28,"ny":28,"refTime":"2026-01-31T09:00:00:Z","depth":0,"parameterNumber":3,"parameterNumberName":"V-component_of_WINDS"},"data":[0,0,0,0,0,0,0,0,0,0,0,0,0,0,0,0,0,0,0,0,0,0,0,0,0,0,0,0,0,0,0,0,0,0,0,0,0,0,0,0,0,0,0,0,0,0,0,0,0,0,0,0,0,0,0,0,0,0,-7.3755,-7.3758,0,-7.3983,-7.3985,-7.3988,-7.3942,-7.3938,-7.3934,-7.393,-7.4159,-7.4169,-7.4179,0,0,0,0,0,0,0,0,0,0,0,0,0,-7.3277,-7.3286,-7.3755,-7.3758,-7.3761,-7.3982,-7.3986,-7.3989,-7.3943,-7.3938,-7.3933,-7.3928,-7.4156,-7.4168,-7.4179,0,0,0,0,0,0,0,0,0,0,0,0,0,-7.3492,-7.3289,-7.3754,-7.3765,-7.3768,-7.3982,-7.3986,-7.3989,-7.3944,-7.3938,-7.3932,-7.3926,-7.4152,-7.4166,-7.4181,-7.4398,0,0,-7.4227,-7.4233,0,0,0,0,0,0,0,0,-7.348,-7.351,-7.376,-7.3765,-7.3768,-7.3928,-7.3901,-7.4126,-7.3946,-7.3877,-7.393,-7.3923,-7.4087,-7.4107,-7.4163,-7.4408,-7.4418,-7.4228,-7.4237,-7.4244,-7.4248,0,0,0,0,0,0,0,-7.3465,-7.35,-7.3845,-7.3764,-7.3769,-7.3757,-7.3781,-7.3943,-7.4014,-7.3883,-7.388,-7.3908,-7.4088,-7.4149,-7.4168,-7.4421,-7.4228,-7.4241,-7.425,-7.4256,-7.4855,-7.4862,0,0,0,0,0,0,-7.3447,-7.3488,-7.3838,-7.3852,-7.3606,-7.377,-7.3797,-7.3883,-7.4012,-7.4026,-7.3913,-7.3905,-7.4126,-7.4151,-7.4176,-7.4438,-7.4243,-7.4257,-7.4266,-7.4849,-7.4857,-7.4864,0,0,0,0,0,0,-7.3437,-7.3479,-7.3829,-7.3669,-7.3713,-7.3785,-7.3882,-7.3891,-7.3952,-7.4035,-7.4047,-7.3962,-7.4122,-7.4155,-7.4343,-7.4445,-7.4264,-7.4278,-7.484,-7.4851,-7.4861,-7.4964,0,0,0,0,0,0,-7.3424,-7.3476,-7.356,-7.3672,-7.3722,-7.3994,-7.3888,-7.39,-7.3978,-7.397,-7.4085,-7.4098,-7.412,-7.4321,-7.4358,-7.4463,-7.4289,-7.4831,-7.4845,-7.4857,-7.4952,-7.4977,-7.4998,0,0,0,0,0,-7.3407,-7.3579,-7.3564,-7.3607,-7.3828,-7.4,-7.4028,-7.4052,-7.3986,-7.4071,-7.4124,-7.4094,-7.4428,-7.4341,-7.4382,-7.4493,-7.4825,-7.4841,-7.4856,-7.4941,-7.4972,-7.4997,0,0,0,0,0,0,-7.3476,-7.3594,-7.3579,-7.3792,-7.3887,-7.3992,-7.4099,-7.4083,-7.4197,-7.4184,-7.4207,-7.4233,-7.4425,-7.4477,-7.4378,-7.4709,-7.4617,-7.4642,-7.4668,-7.4697,-7.472,-7.4703,-7.4302,0,0,0,0,0,-7.3516,-7.3647,-7.3742,-7.3921,-7.3969,-7.4026,-7.4102,-7.4112,-7.421,-7.4249,-7.4316,-7.4411,-7.4537,-7.462,-7.4741,-7.4959,-7.4983,-7.5055,-7.5078,-7.5097,-7.5118,-7.5237,-7.527,-7.4916,-7.4916,-7.4916,0,0,-7.36,-7.368,-7.3761,-7.3937,-7.4011,-7.4145,-7.406,-7.4205,-7.4304,-7.427,-7.4453,-7.4505,-7.4612,-7.4817,-7.491,-7.4866,-7.5221,-7.5117,-7.5131,-7.5142,-7.5256,-7.529,-7.532,-7.4927,-7.4925,-7.4923,0,0,-7.3822,-7.3896,-7.4053,-7.413,-7.4244,-7.428,-7.4318,-7.4427,-7.4461,-7.4644,-7.4622,-7.4739,-7.4956,-7.5034,-7.5102,-7.5353,-7.5329,-7.5391,-7.5512,-7.5628,-7.5656,-7.5681,-7.577,-7.5802,-7.5412,-7.5412,-7.5412,0,-7.3911,-7.4113,-7.4136,-7.4284,-7.4361,-7.4339,-7.4498,-7.457,-7.4717,-7.4771,-7.472,-7.4992,-7.5063,-7.5285,-7.5346,-7.5402,-7.5445,-7.5379,-7.565,-7.5675,-7.5699,-7.5784,-7.5818,-7.5419,-7.5418,-7.5418,-7.5417,0,-7.4218,-7.4358,-7.4472,-7.4616,-7.4706,-7.4859,-7.4903,-7.4992,-7.4994,-7.5036,-7.5222,-7.5306,-7.5444,-7.5497,-7.55,-7.572,-7.5689,-7.5645,-7.5553,-7.5739,-7.582,-7.5853,-7.5429,-7.5426,-7.5424,-7.5423,0,0,-7.449,-7.4645,-7.4686,-7.4752,-7.4875,-7.4984,-7.5134,-7.5271,-7.5346,-7.5448,-7.5574,-7.5759,-7.5718,-7.5795,-7.5806,-7.5908,-7.6102,-7.5851,-7.5853,-7.5895,-7.6349,-7.6383,-7.642,-7.6087,-7.6093,-7.6098,-7.634,0,-7.4723,-7.4991,-7.5016,-7.5256,-7.5386,-7.5366,-7.5497,-7.5587,-7.563,-7.5745,-7.5791,-7.5922,-7.5858,-7.5905,-7.6004,-7.6057,-7.6193,-7.604,-7.6204,-7.6209,-7.6178,-7.6463,-7.6499,-7.6723,-7.6372,-7.6377,-7.6381,0,-7.5031,-7.5144,-7.5398,-7.5504,-7.5559,-7.5677,-7.5804,-7.5914,-7.6015,-7.6039,-7.6125,-7.6123,-7.6277,-7.6179,-7.6392,-7.6287,-7.6355,-7.6391,-7.64,-7.6417,-7.6307,-7.6487,-7.6795,-7.6829,-7.6431,-7.6427,-7.6424,0,-7.5204,-7.5419,-7.5599,-7.5655,-7.5783,-7.5867,-7.5924,-7.6018,-7.6099,-7.6208,-7.6261,-7.6386,-7.6456,-7.6552,-7.6584,-7.651,-7.6795,-7.67,-7.6818,-7.6818,-7.6879,-7.6875,-7.7204,-7.6923,-7.6923,-7.6922,-7.6921,0,-7.5463,-7.5619,-7.5679,-7.5789,-7.5963,-7.5989,-7.616,-7.6212,-7.6297,-7.6416,-7.6405,-7.6517,-7.6552,-7.6669,-7.6694,-7.6866,-7.6897,-7.692,-7.6925,-7.6922,-7.6919,-7.6967,-7.6952,-7.6931,-7.6929,-7.6927,-7.6926,0,-7.5686,-7.5732,-7.5927,-7.6032,-7.6062,-7.6186,-7.6276,-7.6381,-7.6422,-7.6573,-7.661,-7.6674,-7.6812,-7.6853,-7.7018,-7.7035,-7.7237,-7.7227,-7.7203,-7.7204,-7.732,-7.7308,-7.7691,-7.7742,-7.7428,-7.7431,-7.7433,0,-7.5848,-7.5967,-7.6086,-7.6166,-7.6227,-7.6356,-7.6438,-7.6468,-7.6554,-7.6677,-7.6768,-7.6905,-7.7016,-7.7237,-7.7297,-7.7423,-7.7417,-7.7542,-7.7435,-7.7428,-7.7419,-7.7412,-7.7424,-7.7562,-7.7565,-7.7568,-7.757,0,-7.613,-7.6147,-7.6267,-7.6395,-7.6494,-7.6596,-7.6694,-7.6759,-7.6803,-7.69,-7.7042,-7.7128,-7.7297,-7.7433,-7.7561,-7.7618,-7.7602,-7.7603,-7.7637,-7.7635,-7.7617,-7.7629,-7.7258,-7.7594,-7.7592,-7.759,-7.7589,-7.7588,-7.6328,-7.6434,-7.6534,-7.6668,-7.6745,-7.6837,-7.6942,-7.6996,-7.7115,-7.7257,-7.7266,-7.742,-7.7517,-7.7687,-7.7751,-7.787,-7.7834,-7.7883,-7.7896,-7.7907,-7.7917,-7.7598,-7.7894,-7.7893,-7.7892,-7.7892,-7.7891,0,-7.661,-7.6674,-7.6797,-7.6935,-7.704,-7.7017,-7.7124,-7.7213,-7.7348,-7.7441,-7.7551,-7.7713,-7.7844,-7.7915,-7.8046,-7.8128,-7.8124,-7.8161,-7.8155,-7.8169,-7.7942,-7.79,-7.8162,-7.8162,-7.8162,-7.8162,-7.8162,-7.8162,-7.677,-7.6947,-7.6976,-7.7192,-7.7254,-7.7405,-7.7468,-7.7553,-7.7627,-7.7809,-7.7919,-7.7965,-7.8049,-7.8185,-7.8304,-7.8321,-7.837,-7.8412,-7.8425,-7.8212,-7.8185,-7.8158,-7.8119,-7.8422,-7.8422,-7.8641,-7.8643,-7.8645]}]]